GW1475 Weather Reports


time (UTC)temp
C
wind
direction
speed
KPH
gust
KPH
rain 1hr
cm
rain 24hr
cm
rain mn
cm
humidity
%
barometer
mb
20260503054237 2 129 0.0 0.0 0.00 0.00 0.00 99 1013.5
20260503053623 2 129 0.0 0.0 0.00 0.00 0.00 99 1013.5
20260503053051 2 129 0.0 0.0 0.00 0.00 0.00 99 1013.5
20260503052424 2 129 0.0 0.0 0.00 0.00 0.00 99 1013.2
20260503051854 2 129 0.0 0.0 0.00 0.00 0.00 99 1013.5
20260503051244 2 129 0.0 0.0 0.00 0.00 0.00 99 1013.5
20260503050649 2 129 0.0 0.0 0.00 0.00 0.00 99 1013.8
20260503050053 2 129 0.0 0.0 0.00 0.00 0.00 99 1013.2
20260503045418 2 128 0.0 0.0 0.00 0.00 0.00 99 1013.2
20260503044845 3 128 0.0 0.0 0.00 0.00 0.00 99 1013.2
20260503044242 3 128 0.0 0.0 0.00 0.00 0.00 99 1013.2
20260503043639 3 130 0.0 0.0 0.00 0.00 0.00 99 1013.2
20260503043016 3 129 0.0 0.0 0.00 0.00 0.00 99 1013.2
20260503042443 3 130 0.0 0.0 0.00 0.00 0.00 99 1013.2
20260503041823 3 130 0.0 0.0 0.00 0.00 0.00 99 1013.2
20260503040623 3 129 0.0 0.0 0.00 0.00 0.00 99 1012.8
20260503040047 3 130 0.0 0.0 0.00 0.00 0.00 98 1012.8
20260503035451 3 129 0.0 0.0 0.00 0.00 0.00 98 1013.2
20260503034851 3 131 0.0 0.0 0.00 0.00 0.00 97 1012.8
20260503034216 3 131 0.0 0.0 0.00 0.00 0.00 97 1012.8
20260503033638 4 131 0.0 0.0 0.00 0.00 0.00 97 1012.8
20260503032419 4 131 0.0 0.0 0.00 0.00 0.00 96 1012.8
20260503031839 4 131 0.0 0.0 0.00 0.00 0.00 95 1012.5
20260503031244 4 130 0.0 0.0 0.00 0.00 0.00 95 1012.8
20260503030642 5 129 0.0 0.0 0.00 0.00 0.00 95 1012.8
20260503030024 5 138 0.0 0.0 0.00 0.00 0.00 94 1012.5
20260503025424 5 118 0.0 1.6 0.00 0.00 0.00 94 1012.5
20260503024829 5 118 0.0 0.0 0.00 0.00 0.00 93 1012.5
20260503024233 5 113 0.0 0.0 0.00 0.00 0.00 92 1012.5
20260503023618 5 112 0.0 0.0 0.00 0.00 0.00 92 1012.5
20260503023036 5 351 0.0 0.0 0.00 0.00 0.00 90 1012.1
20260503022451 6 350 0.0 0.0 0.00 0.00 0.00 89 1012.1
20260503021851 6 343 3.2 3.2 0.00 0.00 0.00 89 1012.1
20260503021241 6 133 0.0 0.0 0.00 0.00 0.00 88 1012.1
20260503020644 6 133 1.6 1.6 0.00 0.00 0.00 88 1012.1
20260503020048 6 133 0.0 0.0 0.00 0.00 0.00 88 1012.1
20260503014817 7 134 0.0 0.0 0.00 0.00 0.00 87 1012.1
20260503014252 7 134 0.0 0.0 0.00 0.00 0.00 86 1011.5
20260503013626 7 134 0.0 0.0 0.00 0.00 0.00 86 1011.5
20260503013014 7 134 0.0 0.0 0.00 0.00 0.00 85 1011.1
20260503011811 7 134 0.0 0.0 0.00 0.00 0.00 84 1011.5
20260503011231 8 134 0.0 0.0 0.00 0.00 0.00 83 1011.1
20260503010623 8 134 0.0 0.0 0.00 0.00 0.00 82 1011.5
20260503010028 8 134 0.0 0.0 0.00 0.00 0.00 80 1011.1
20260503005413 8 134 0.0 0.0 0.00 0.00 0.00 79 1011.1
20260503004843 9 134 0.0 0.0 0.00 0.00 0.00 78 1010.8
20260503004211 9 134 0.0 0.0 0.00 0.00 0.00 77 1011.1
20260503003641 10 134 0.0 0.0 0.00 0.00 0.00 74 1011.1
20260503003018 10 134 0.0 0.0 0.00 0.00 0.00 72 1010.8
20260503001815 10 135 1.6 1.6 0.00 0.00 0.00 63 1010.8
20260503001232 10 134 0.0 1.6 0.00 0.00 0.00 63 1010.8
20260503000048 11 123 1.6 3.2 0.00 0.00 0.00 61 1010.4
20260502235410 11 139 0.0 0.0 0.00 0.00 0.00 62 1010.4
20260502234841 11 122 3.2 3.2 0.00 0.00 0.00 62 1010.8
20260502234245 11 104 1.6 1.6 0.00 0.00 0.00 60 1010.8
20260502233641 11 233 1.6 1.6 0.00 0.00 0.00 59 1010.4
20260502232429 12 112 3.2 3.2 0.00 0.00 0.00 55 1010.1
20260502231840 12 191 1.6 1.6 0.00 0.00 0.00 52 1010.4
20260502231212 12 104 0.0 0.0 0.00 0.00 0.00 54 1010.4
20260502230630 12 118 1.6 1.6 0.00 0.00 0.00 52 1010.4
20260502230040 12 135 0.0 1.6 0.00 0.00 0.00 51 1010.1
20260502225434 12 81 3.2 3.2 0.00 0.00 0.00 51 1010.4
20260502224832 12 10 1.6 3.2 0.00 0.00 0.00 50 1010.4
20260502224227 12 93 1.6 1.6 0.00 0.00 0.00 50 1010.1
20260502223035 12 168 1.6 1.6 0.00 0.00 0.00 50 1010.1
20260502222421 12 59 3.2 3.2 0.00 0.00 0.00 51 1010.4
20260502221839 12 74 3.2 3.2 0.00 0.00 0.00 49 1010.4
20260502221254 12 143 0.0 1.6 0.00 0.00 0.00 50 1010.4
20260502220621 12 138 0.0 1.6 0.00 0.00 0.00 51 1010.4
20260502220030 12 314 3.2 3.2 0.00 0.00 0.00 50 1010.4
20260502215411 12 161 1.6 1.6 0.00 0.00 0.00 50 1010.4
20260502214823 12 45 1.6 3.2 0.00 0.00 0.00 49 1010.1
20260502213651 12 154 0.0 0.0 0.00 0.00 0.00 50 1010.1
20260502213041 12 142 0.0 1.6 0.00 0.00 0.00 49 1010.1
20260502212448 12 345 0.0 1.6 0.00 0.00 0.00 49 1010.1
20260502211814 12 239 1.6 1.6 0.00 0.00 0.00 47 1009.8
20260502211238 12 340 1.6 3.2 0.00 0.00 0.00 47 1010.1
20260502210627 12 292 3.2 3.2 0.00 0.00 0.00 48 1009.8
20260502210034 13 196 4.8 6.4 0.00 0.00 0.00 47 1009.8
20260502205414 13 163 3.2 4.8 0.00 0.00 0.00 47 1010.1
20260502204235 13 200 3.2 4.8 0.00 0.00 0.00 46 1009.8
20260502203612 12 262 1.6 1.6 0.00 0.00 0.00 48 1010.1
20260502203052 12 132 3.2 4.8 0.00 0.00 0.00 47 1010.4
20260502202443 13 109 6.4 9.7 0.00 0.00 0.00 48 1010.1
20260502201845 13 148 1.6 1.6 0.00 0.00 0.00 47 1010.1
20260502201211 13 222 3.2 3.2 0.00 0.00 0.00 48 1010.1
20260502200650 13 321 6.4 9.7 0.00 0.00 0.00 47 1010.1
20260502200039 13 189 3.2 4.8 0.00 0.00 0.00 47 1010.4
20260502195414 12 203 0.0 0.0 0.00 0.00 0.00 50 1010.4
20260502194838 13 151 3.2 4.8 0.00 0.00 0.00 47 1010.1
20260502194248 13 358 3.2 3.2 0.00 0.00 0.00 47 1010.1
20260502193634 13 326 14.5 16.1 0.00 0.00 0.00 45 1010.4
20260502193038 12 144 9.7 12.9 0.00 0.00 0.00 47 1010.4
20260502192426 12 182 22.5 27.4 0.00 0.00 0.00 48 1010.8
20260502191852 12 56 3.2 6.4 0.00 0.00 0.00 49 1010.4
20260502190615 13 283 4.8 6.4 0.00 0.00 0.00 46 1010.4
20260502190018 13 277 4.8 4.8 0.00 0.00 0.00 47 1010.4
20260502185437 13 354 3.2 4.8 0.00 0.00 0.00 47 1010.4
20260502184255 13 258 6.4 9.7 0.00 0.00 0.00 47 1010.8
20260502183654 13 261 6.4 9.7 0.00 0.00 0.00 48 1010.8
20260502183016 12 185 1.6 3.2 0.00 0.00 0.00 48 1011.1
20260502182440 12 333 6.4 6.4 0.00 0.00 0.00 47 1011.1
20260502181834 12 209 3.2 3.2 0.00 0.00 0.00 48 1011.1
20260502181254 13 110 3.2 4.8 0.00 0.00 0.00 48 1011.1
20260502180621 12 327 6.4 6.4 0.00 0.00 0.00 47 1011.1
20260502164244 12 291 9.7 12.9 0.00 0.00 0.00 54 1011.5
20260502163631 12 311 8.0 9.7 0.00 0.00 0.00 55 1011.5
20260502163054 12 270 6.4 6.4 0.00 0.00 0.00 54 1011.5
20260502162442 12 151 4.8 9.7 0.00 0.00 0.00 53 1011.8
20260502161816 12 345 3.2 4.8 0.00 0.00 0.00 54 1011.5
20260502161221 12 316 3.2 4.8 0.00 0.00 0.00 56 1011.5
20260502160623 12 265 3.2 3.2 0.00 0.00 0.00 58 1011.5
20260502151833 12 157 8.0 11.3 0.00 0.00 0.00 61 1011.8
20260502151241 12 313 6.4 9.7 0.00 0.00 0.00 61 1011.8
20260502150650 12 308 6.4 9.7 0.00 0.00 0.00 62 1011.8
20260502130631 6 115 1.6 1.6 0.00 0.00 0.00 99 1012.1
20260502123636 3 115 0.0 0.0 0.00 0.00 0.00 99 1012.1
20260502122440 3 139 1.6 1.6 0.00 0.00 0.00 99 1012.1
20260502121222 3 109 0.0 0.0 0.00 0.00 0.00 99 1012.1
20260502120644 3 127 0.0 0.0 0.00 0.00 0.00 99 1012.1
20260502115451 3 169 0.0 0.0 0.00 0.00 0.00 99 1011.8
20260502114813 3 164 1.6 1.6 0.00 0.00 0.00 99 1012.1
20260502114232 3 165 0.0 0.0 0.00 0.00 0.00 99 1012.1
20260502113611 3 119 0.0 1.6 0.00 0.00 0.00 99 1012.1
20260502113039 3 77 1.6 1.6 0.00 0.00 0.00 99 1012.1
20260502112437 3 104 0.0 0.0 0.00 0.00 0.00 99 1011.8
20260502111828 3 100 0.0 0.0 0.00 0.00 0.00 99 1011.8
20260502111226 2 165 0.0 0.0 0.00 0.00 0.00 99 1011.8
20260502110017 3 136 0.0 0.0 0.00 0.00 0.00 99 1011.8
20260502105418 2 133 0.0 0.0 0.00 0.00 0.00 99 1011.5
20260502104829 2 180 0.0 0.0 0.00 0.00 0.00 99 1011.8
20260502104217 2 150 0.0 0.0 0.00 0.00 0.00 99 1011.5
20260502103635 3 132 0.0 0.0 0.00 0.00 0.00 99 1011.1
20260502103043 3 132 1.6 3.2 0.00 0.00 0.00 99 1011.5
20260502102419 3 167 0.0 0.0 0.00 0.00 0.00 99 1011.5
20260502101847 3 78 1.6 1.6 0.00 0.00 0.00 99 1011.5
20260502100631 2 83 0.0 0.0 0.00 0.00 0.00 99 1011.8
20260502091252 3 83 0.0 1.6 0.00 0.00 0.00 99 1012.1
20260502090624 3 83 0.0 0.0 0.00 0.00 0.00 99 1012.5
20260502071224 4 83 0.0 0.0 0.00 0.00 0.00 99 1011.5
20260502070652 4 83 0.0 0.0 0.00 0.00 0.00 98 1011.1
20260502070035 4 83 0.0 0.0 0.00 0.00 0.00 98 1011.5
20260502063651 5 83 0.0 0.0 0.00 0.00 0.00 97 1011.5